Content
SEND FEEDBACK

Daily
Averages
Monthly
Summary
United Kingdom

COUNTY OAK, ENGLAND


Home > Europe > United Kingdom > England
Elevation: 203 feet     Latitude: 51 01N     Longitude: 000 10W

WEATHER
 
SELECT A DAY
Number of Records: 298,768;   Date Range: 7/1/96 - 11/25/14
 
SHARE

PRINT THIS DATA

[ ← Previous Day ]
WEATHER ALMANAC - MARCH 14, 2013
[ Next Day → ]
[ °C ]   °F
Weather ElementAverageHighLow
Temperature35.9 °F42.8 °F (12:50 pm)28.4 °F (1:20 am)
Dewpoint25.4 °F30.2 °F (9:20 am)21.2 °F (3:50 pm)
Humidity68.4 %93 % (1:20 am)42 % (3:50 pm)
Barometer29.99 in30.04 in (10:20 am)29.95 in (12:50 am)
Wind Speed5.2 mph9.2 mph (10:50 am)
Wind Gust21.9 mph (1:50 pm)
Weather ElementAverage
Visibility4.5 mi
Wind DirectionWSW (255.3 °)

Weather ElementTotal
Precipitation---
Heating Degree Days29.4 (Base 65)
Averaged from 47 records on March 14, 2013
WEATHER CONDITIONS BREAKOUT
WIND DIRECTION BREAKOUT
WEATHER BY HOUR - MARCH 14, 2013
[ °C ]   °F
Local TimeTemperatureDewpointHumidityBarometerVisibilityWind DirectionWind SpeedGust SpeedPrecipitationEventsConditions
12:50 AM30.2 °F26.6 °F86 %29.95 in3.7 miWNW (300°)2.3 mphScattered Clouds
1:20 AM28.4 °F26.6 °F93 %29.95 in3.7 miWNW (300°)4.6 mphPartly Cloudy
1:50 AM30.2 °F26.6 °F86 %29.95 in3.1 miNW (310°)2.3 mphHaze
2:20 AM28.4 °F26.6 °F93 %29.98 in2.8 miVariable2.3 mphHaze
2:50 AM28.4 °F26.6 °F93 %29.98 in2.5 miVariable2.3 mphHaze
3:20 AM28.4 °F26.6 °F93 %29.98 in2.5 miVariable2.3 mphHaze
3:50 AM28.4 °F24.8 °F86 %29.98 in2.2 miWNW (290°)3.5 mphHaze
4:20 AM28.4 °F26.6 °F93 %29.98 in2.8 miNW (320°)3.5 mphHaze
4:50 AM28.4 °F26.6 °F93 %29.98 in2.8 miNW (320°)5.8 mphHaze
5:20 AM28.4 °F24.8 °F86 %29.98 in2.8 miNW (320°)4.6 mphHaze
5:50 AM28.4 °F24.8 °F86 %29.98 in2.5 miNW (320°)5.8 mphHaze
6:20 AM28.4 °F26.6 °F93 %29.98 in2.5 miNW (320°)8.1 mphHaze
6:50 AM28.4 °F26.6 °F93 %30.01 inNW (320°)6.9 mphHaze
7:20 AM30.2 °F26.6 °F86 %30.01 in3.1 miNW (320°)5.8 mphHaze
7:50 AM30.2 °F26.6 °F86 %30.01 in3.1 miNW (320°)5.8 mphHaze
8:20 AM32.0 °F28.4 °F87 %30.01 in5.0 miVariable3.5 mphPartly Cloudy
8:50 AM32.0 °F28.4 °F87 %30.01 in5.0 miWNW (300°)4.6 mphPartly Cloudy
9:20 AM35.6 °F30.2 °F81 %30.01 in5.0 miNW (310°)5.8 mph
9:50 AM35.6 °F30.2 °F81 %30.01 in6.2 miNW (310°)5.8 mphPartly Cloudy
10:20 AM39.2 °F28.4 °F65 %30.04 in6.2 miNNW (340°)6.9 mphScattered Clouds
10:50 AM39.2 °F28.4 °F65 %30.04 in6.2 miNW (320°)9.2 mphScattered Clouds
11:20 AM39.2 °F26.6 °F61 %30.04 in6.2 miNW (310°)8.1 mphPartly Cloudy
11:50 AM39.2 °F26.6 °F61 %30.01 in6.2 miNW (310°)5.8 mphScattered Clouds
12:20 PM41.0 °F26.6 °F57 %30.01 in6.2 miNW (320°)4.6 mphScattered Clouds
12:50 PM42.8 °F26.6 °F53 %30.01 in6.2 miWest (280°)4.6 mphMostly Cloudy
1:20 PM41.0 °F24.8 °F53 %30.01 in6.2 miNW (320°)8.1 mphMostly Cloudy
1:50 PM42.8 °F24.8 °F49 %30.01 in6.2 miNNW (330°)8.1 mph21.9 mphScattered Clouds
2:20 PM42.8 °F23.0 °F46 %29.98 in6.2 miNW (310°)6.9 mphPartly Cloudy
2:50 PM42.8 °F23.0 °F46 %29.98 in6.2 miWNW (290°)8.1 mphPartly Cloudy
3:20 PM41.0 °F23.0 °F49 %29.98 inNNW (330°)8.1 mphClear
3:50 PM42.8 °F21.2 °F42 %29.98 inNNW (330°)6.9 mphClear
4:20 PM42.8 °F21.2 °F42 %29.98 in6.2 miNW (310°)5.8 mphPartly Cloudy
4:50 PM42.8 °F21.2 °F42 %29.98 inWNW (300°)4.6 mphClear
5:20 PM42.8 °F21.2 °F42 %29.98 inVariable3.5 mphClear
5:50 PM42.8 °F21.2 °F42 %29.98 inNW (310°)3.5 mphClear
6:20 PM41.0 °F23.0 °F49 %29.98 inSSW (200°)2.3 mphClear
6:50 PM39.2 °F23.0 °F52 %29.98 inSW (220°)2.3 mphClear
7:20 PM39.2 °F23.0 °F52 %29.98 inSW (220°)3.5 mphClear
7:50 PM37.4 °F23.0 °F56 %29.98 inSW (220°)4.6 mphClear
8:20 PM39.2 °F23.0 °F52 %29.98 inSSW (200°)5.8 mphClear
8:50 PM37.4 °F23.0 °F56 %29.98 inSW (220°)5.8 mphClear
9:20 PM37.4 °F24.8 °F60 %29.98 inSW (230°)4.6 mphClear
9:50 PM37.4 °F26.6 °F65 %29.95 inSW (220°)4.6 mphClear
10:20 PM37.4 °F26.6 °F65 %29.95 inSW (220°)5.8 mphClear
10:50 PM35.6 °F26.6 °F70 %29.95 inSW (220°)4.6 mphClear
11:20 PM35.6 °F26.6 °F70 %29.95 inSW (220°)5.8 mphClear
11:50 PM35.6 °F26.6 °F70 %29.95 inSW (220°)5.8 mphClear
Hourly data recorded from EGKK, located miles away from County Oak, England







STORIES FROM OUR PARTNERS